Location: Possagno
(45.8500°N, 11.8667°E)
Time: 11:00:41
(UTC+00:00)

Meteor 2-10 Rocket - Pass Details

Date: 07 June 2020
Orbit: 733 x 885 km, 81.2° (Epoch: 04 July)

Event Time Altitude Azimuth Distance (km) Brightness Sun altitude
Rises 00:26:46 0° 341° (NNW) 3,240 7.6 -19.3°
Reaches altitude 10° 00:29:18 10° 333° (NNW) 2,291 6.6 -19.1°
Maximum altitude 00:33:54 35° 269° (W) 1,195 4.3 -18.9°
Enters shadow 00:35:15 30° 237° (WSW) 1,320 4.3 -18.8°
